COSMOS 2251 DEB, 35996

Orbit data source: Space-Track

COSMOS 2251 DEB, 35996 is space debris in LEO originally from a launch on Wed, 16 Jun 1993 UTC launched from the Plesetsk Missile And Space Complex (PKMTR). The debris from Iridium 33, an American commercial communications satellite, has been tracked extensively since its accidental collision with the defunct Russian satellite Cosmos 2251 in 2009. This event, occurring at high speed in low Earth orbit (LEO), generated thousands of pieces of space debris, significantly increasing the risk of further collisions. The Iridium 33 debris cloud has impacted space traffic management and orbital debris mitigation strategies, making it a subject of ongoing study in space situational awareness.

Loading next visibility...
Identifier
35996, 1993-036AWN
Orbit
LEO
Country
Flag of CISCIS
Related business
Manufacturer
Unknown
Mission
Spacecraft
Bus & Motor
Unknown
Mass
Unknown
Launch date (UTC)
1993-06-16 (33 years ago)
Launch vehicle
Unknown
Launch site
Plesetsk Missile And Space Complex (PKMTR)
Object type
Payload
Rocket body
Debris
Shape & HBR
Unknown shape, 0.1 m
Radar Cross Section
Small (<0.1 m²)

Expand to show TLE details & history
Last TLE update: 9 hours ago

TLE from 9 hours ago
0 COSMOS 2251 DEB
1 35996U 93036AWN 26121.40828481  .00011145  00000-0  59499-3 0  9991
2 35996  74.0110 174.3511 0083374 228.3622 131.0412 15.12179517744353
Epoch: 2026-05-01T09:47Z
TLE epoch observation values (Epoch: 2026-05-01T09:47:55.807Z)
Latitude
-0.00001°
Longitude
168.0276°
Altitude
570.349 km
Speed
7.555 km/s
True Right ascension
11h 37m 24s
True Declination
0° 00' 00"
Sunlit
Object was in full shadow at epoch
Visualization orbit readout
Latitude
Unknown
Longitude
Unknown
Altitude
Unknown
Speed
Unknown
Apparent Right ascension
Unknown
Apparent Declination
Unknown
Sunlit
N/A
Visualization observer readout
Local Sidereal Time
02:25:17
Azimuth
Unknown
Elevation
Unknown
Doppler factor
Unknown
Orbital elements
Apogee altitude
584.669 km
Perigee altitude
469.525 km
Semi-major axis
6,905.234 km
Eccentricity
0.00834
Inclination
74.011°
RAAN
174.3511°
Arg. of periapsis
228.3622°
True anomaly
131.75688°
Mean anomaly
131.0412°
Eccentric anomaly
131.39953°
Mean motion
3.78247 °/min
Orbital period
95.18 mins
BSTAR
0.00059499
Loading maneuver chart data...
Computing Atmospheric mass density...

Documentation

Showing up to 5 results
|